Location: Sebastopol
(38.4021°N, 122.8239°W)
Time: 15:40:01
(UTC+00:00)

ERS-2 - Pass Details

Date: 29 October 2020
Orbit: 493 x 497 km, 98.6° (Epoch: 30 November)

Event Time Altitude Azimuth Distance (km) Brightness Sun altitude
Rises 12:03:59 0° 137° (SE) 2,567 6.2 -30.1°
Reaches altitude 10° 12:06:20 10° 123° (ESE) 1,688 5.4 -29.7°
Maximum altitude 12:09:15 23° 69° (ENE) 1,081 4.4 -29.1°
Enters shadow 12:10:15 21° 44° (NE) 1,171 4.4 -28.9°
